Volver al catálogo

STARLINK-11388

ActivoComunicacionesVLEO
NORAD 62092·PAYLOAD·🇺🇸 United States

Lanzado Nov 25, 2024 desde Cape Canaveral Space Force Station

Loading…

Próximos Pases (próximas 24 horas)

TLE

ActualizadoSource: CelesTrak SupGP

Época: Sep 14, 2026, 21:35 UTC

1 62092C 24220E   26257.89979167 -.00055552  00000+0 -43133-3 0  2574
2 62092  43.0005 342.6523 0001692 260.5565 334.8222 15.70873783    19

Sigue STARLINK-11388 en tiempo real con AllMySat

Download on the App Store